This is the latest recevied weather packets stored in our database for station/object VE3VGJ. If no packets are shown the sender has not sent any weather packets the latest 10 day(s).
| Time | Temp. | Humidity | Pressure | Rain* | Wind** | Luminosity | Snow |
|---|---|---|---|---|---|---|---|
| 1777994039 | 16.11° C | 67% | 1001.8 hPa | 0 mm | - | 905 W/m² | - |
| 1777993736 | 15.56° C | 67% | 1001.8 hPa | 0 mm | - | 354 W/m² | - |
| 1777993433 | 15.56° C | 67% | 1002 hPa | 0 mm | - | 387 W/m² | - |
| 1777993132 | 15.56° C | 68% | 1001.5 hPa | 0 mm | - | 768 W/m² | - |
| 1777992831 | 15° C | 69% | 1001.6 hPa | 0 mm | - | 750 W/m² | - |
| 1777992528 | 15° C | 69% | 1001.2 hPa | 0 mm | - | 296 W/m² | - |
| 1777992227 | 15° C | 69% | 1001.3 hPa | 0 mm | - | 208 W/m² | - |
| 1777991923 | 15° C | 69% | 1000.9 hPa | 0 mm | - | 411 W/m² | - |
| 1777991621 | 15° C | 69% | 1001.3 hPa | 0 mm | - | 315 W/m² | - |
| 1777991318 | 15° C | 69% | 1001.2 hPa | 0 mm | - | 479 W/m² | - |
| 1777991015 | 15.56° C | 68% | 1001.1 hPa | 0 mm | - | 243 W/m² | - |
| 1777990712 | 15.56° C | 68% | 1001.3 hPa | 0 mm | - | 316 W/m² | - |
| 1777990410 | 15.56° C | 68% | 1000.9 hPa | 0 mm | - | 340 W/m² | - |
| 1777989803 | 14.44° C | 70% | 1001.1 hPa | 0 mm | - | 549 W/m² | - |
| 1777989500 | 13.89° C | 72% | 1001.3 hPa | 0 mm | - | 497 W/m² | - |
| 1777989196 | 13.89° C | 72% | 1001.2 hPa | 0 mm | - | 228 W/m² | - |
| 1777988892 | 13.89° C | 72% | 1001.3 hPa | 0 mm | - | 200 W/m² | - |
| 1777988589 | 13.89° C | 72% | 1001.1 hPa | 0 mm | - | 260 W/m² | - |
| 1777988286 | 13.33° C | 72% | 1001.2 hPa | 0 mm | - | 248 W/m² | - |
| 1777987982 | 13.89° C | 72% | 1001.2 hPa | 0 mm | - | 220 W/m² | - |
| 1777987678 | 13.89° C | 71% | 1001 hPa | 0 mm | - | 262 W/m² | - |
| 1777987376 | 13.89° C | 72% | 1000.9 hPa | 0 mm | - | 161 W/m² | - |
| 1777987073 | 13.89° C | 72% | 1000.6 hPa | 0 mm | - | 222 W/m² | - |
| 1777986770 | 13.33° C | 74% | 1000.8 hPa | 0 mm | - | 270 W/m² | - |
| 1777986467 | 12.78° C | 74% | 1000.7 hPa | 0 mm | - | 168 W/m² | - |
* Rain latest hour (hover to see other rain measurements)
** Current wind speed in m/s (hover to see current wind gust speed)